This is the latest recevied weather packets stored in our database for station/object FW0690. If no packets are shown the sender has not sent any weather packets the latest 10 day(s).
| Time | Temp. | Humidity | Pressure | Rain* | Wind** | Luminosity | Snow |
|---|---|---|---|---|---|---|---|
| 1777993000 | 26.67° C | 24% | 1012 hPa | - | - | 29 W/m² | - |
| 1777992640 | 27.78° C | 23% | 1012 hPa | - | - | 33 W/m² | - |
| 1777992280 | 28.89° C | 23% | 1011.9 hPa | - | - | 43 W/m² | - |
| 1777991920 | 29.44° C | 23% | 1011.9 hPa | - | - | 162 W/m² | - |
| 1777991560 | 28.89° C | 23% | 1011.9 hPa | - | - | 162 W/m² | - |
| 1777991200 | 29.44° C | 23% | 1011.9 hPa | - | - | 38 W/m² | - |
| 1777990840 | 29.44° C | 23% | 1011.9 hPa | - | - | 80 W/m² | - |
| 1777990480 | 28.89° C | 22% | 1011.9 hPa | - | - | 80 W/m² | - |
| 1777989760 | 30.56° C | 22% | 1011.9 hPa | - | - | 305 W/m² | - |
| 1777989400 | 29.44° C | 21% | 1011.9 hPa | - | - | 305 W/m² | - |
| 1777989040 | 30.56° C | 21% | 1011.8 hPa | - | - | 305 W/m² | - |
| 1777988680 | 31.11° C | 21% | 1011.8 hPa | - | - | 305 W/m² | - |
| 1777988320 | 30.56° C | 21% | 1011.8 hPa | - | - | 305 W/m² | - |
| 1777987960 | 29.44° C | 21% | 1011.9 hPa | - | - | 305 W/m² | - |
| 1777987600 | 30° C | 20% | 1012 hPa | - | - | 305 W/m² | - |
| 1777987240 | 31.67° C | 21% | 1012 hPa | - | - | 305 W/m² | - |
| 1777986880 | 31.67° C | 21% | 1012 hPa | - | - | 305 W/m² | - |
| 1777986520 | 30.56° C | 22% | 1012 hPa | - | - | 305 W/m² | - |
| 1777986160 | 29.44° C | 22% | 1012.1 hPa | - | - | 305 W/m² | - |
| 1777985800 | 28.89° C | 22% | 1012.1 hPa | - | - | 95 W/m² | - |
| 1777985440 | 29.44° C | 21% | 1012.2 hPa | - | - | 43 W/m² | - |
| 1777985080 | 30° C | 21% | 1012.3 hPa | - | - | 39 W/m² | - |
| 1777984720 | 30° C | 21% | 1012.3 hPa | - | - | 37 W/m² | - |
| 1777984360 | 30.56° C | 21% | 1012.4 hPa | - | - | 37 W/m² | - |
| 1777984000 | 30.56° C | 21% | 1012.4 hPa | - | - | 37 W/m² | - |
* Rain since midnight (hover to see other rain measurements)
** Current wind speed in m/s (hover to see current wind gust speed)